This is the latest recevied weather packets stored in our database for station/object BV5AB-13. If no packets are shown the sender has not sent any weather packets the latest 10 day(s).
| Time | Temp. | Humidity | Pressure | Rain* | Wind** | Luminosity | Snow |
|---|---|---|---|---|---|---|---|
| 1777954026 | 23.33° C | 87% | 1004.8 hPa | 0 mm | - | - | - |
| 1777953424 | 23.33° C | 87% | 1004.8 hPa | 0 mm | - | - | - |
| 1777952824 | 23.33° C | 88% | 1004.8 hPa | 0 mm | - | - | - |
| 1777952223 | 23.33° C | 90% | 1004.8 hPa | 0 mm | - | - | - |
| 1777951624 | 22.78° C | 91% | 1005 hPa | 0 mm | - | - | - |
| 1777951024 | 22.78° C | 89% | 1005.1 hPa | 0.51 mm | - | - | - |
| 1777950423 | 22.78° C | 90% | 1005.3 hPa | 0.51 mm | - | - | - |
| 1777949823 | 22.78° C | 92% | 1005.3 hPa | 1.02 mm | - | - | - |
| 1777949224 | 22.22° C | 93% | 1005.2 hPa | 2.03 mm | - | - | - |
| 1777948624 | 22.78° C | 92% | 1005.2 hPa | 2.03 mm | - | - | - |
| 1777948024 | 22.22° C | 92% | 1005.2 hPa | 2.03 mm | - | - | - |
| 1777947423 | 22.22° C | 91% | 1005.2 hPa | 2.03 mm | - | - | - |
| 1777946824 | 22.22° C | 89% | 1005.1 hPa | 2.03 mm | - | - | - |
| 1777946224 | 22.22° C | 88% | 1005.3 hPa | 1.52 mm | - | - | - |
| 1777945623 | 22.22° C | 89% | 1005.2 hPa | 0.51 mm | - | - | - |
| 1777945023 | 22.22° C | 90% | 1005.1 hPa | 0.51 mm | - | - | - |
| 1777944423 | 22.22° C | 88% | 1005.3 hPa | 0.51 mm | - | - | - |
| 1777943823 | 22.22° C | 89% | 1005.1 hPa | 0.51 mm | - | - | - |
| 1777943224 | 22.22° C | 87% | 1005.1 hPa | 0 mm | - | - | - |
| 1777942624 | 22.22° C | 89% | 1005.1 hPa | 0 mm | - | - | - |
| 1777942023 | 21.67° C | 90% | 1004.9 hPa | 0 mm | - | - | - |
| 1777941428 | 22.22° C | 90% | 1004.9 hPa | 0 mm | - | - | - |
| 1777940825 | 21.67° C | 90% | 1004.9 hPa | 0 mm | - | - | - |
| 1777940225 | 21.67° C | 89% | 1004.9 hPa | 0 mm | - | - | - |
| 1777939624 | 21.67° C | 90% | 1004.9 hPa | 0 mm | - | - | - |
* Rain latest hour (hover to see other rain measurements)
** Current wind speed in m/s (hover to see current wind gust speed)